Miscellaneous Local Product
Issued by NWS North Platte, NE

Home | Current Version | Previous Version | Text Only | Print | Product List | Glossary On
Versions: 1 2 3 4 5 6 7 8 9 10 11 12 13 14 15 16 17 18 19 20 21 22 23 24 25 26 27 28 29 30 31 32 33 34 35 36 37 38 39 40 41 42 43 44 45 46 47 48 49 50
000
AXUS43 KLBF 231210
MISLBF


WESTERN AND NORTH CENTRAL NEBRASKA HOURLY WEATHER ROUNDUP
NATIONAL WEATHER SERVICE NORTH PLATTE NE
700 AM CDT WED APR 23 2014

***STATIONS NOT REPORTING VARIABLES SUCH AS SKY/WEATHER OR
PRESSURE ARE PROVIDED BY THE NEBRASKA DEPARTMENT OF
ROADS...RAWS...AND APRS NETWORKS...AND ARE NOT UNDER
NATIONAL WEATHER SERVICE QUALITY CONTROL***

...OBSERVATIONS IN AND NEAR THE EASTERN PANHANDLE OF NEBRASKA...

CITY           SKY/WX    TMP DP  RH WIND       PRES   REMARKS
PINE RIDGE     CLOUDY    57  47  69 SW13      29.50R
CHADRON        CLOUDY    55  46  71 SW5       29.49R
ALLIANCE       CLOUDY    52  45  77 SE10      29.49F
SIDNEY         CLOUDY    49  42  77 SW3       29.53F
WHITECLAY        N/A     56  45  67 S10         N/A
CRESCENT LAKE    N/A     52  45  77 SE5G14      N/A
LISCO            N/A     56  44  64 E8          N/A
BIG SPRINGS      N/A     54  47  76 NE3         N/A
LEWELLEN         N/A     50  44  79 E8          N/A
$$

...OBSERVATIONS IN SOUTHWEST NEBRASKA AND FAR NORTHEAST COLORADO...

CITY           SKY/WX    TMP DP  RH WIND       PRES   REMARKS
WRAY           FAIR      62  42  47 S18G26    29.54F
HOLYOKE        FAIR      59  43  55 S18       29.52F
IMPERIAL       CLOUDY    58  43  57 S12       29.54F
OGALLALA       CLOUDY    52  44  74 SE8       29.54F
NORTH PLATTE   MOCLDY    56  40  55 SE16      29.58F
MCCOOK         CLOUDY    55  44  66 SE13      29.61F
LEXINGTON      CLOUDY    54  37  51 SE22G29   29.66S
PAXTON           N/A     54  44  67 E5          N/A
SUTHERLAND       N/A     50  41  69 E5          N/A
GOTHENBURG       N/A     55  38  53 SE7G15      N/A
CALLAWAY         N/A     53  37  54 SE21        N/A
$$

...OBSERVATIONS IN NORTH CENTRAL NEBRASKA...

CITY           SKY/WX    TMP DP  RH WIND       PRES   REMARKS
VALENTINE      CLOUDY    54  33  45 SE16      29.55F
THEDFORD       CLOUDY    56  34  42 S24G30    29.57F
AINSWORTH      CLOUDY    54  34  47 S23G31    29.56F
O`NEILL        PTCLDY    54  32  43 SE21G31   29.68S
ORD            CLOUDY    50  37  61 SE14G21   29.68F
BROKEN BOW     MOCLDY    54  35  48 SE18G33   29.66F
BROWNLEE         N/A     58  35  42 SE20        N/A
SPRINGVIEW       N/A     54  36  50 E9G17       N/A
DUNNING          N/A     55  34  45 S22         N/A
BREWSTER         N/A     57  36  45 S23         N/A
ROSE             N/A     55  39  54 E21         N/A
NEWPORT          N/A     53  36  52 S17         N/A
COMSTOCK         N/A     60  39  44 S22         N/A
CHAMBERS         N/A     51  32  49 E16         N/A
EWING            N/A     53  36  53 SE12G21     N/A
$$

...SOME WEATHER OBSERVATIONS FROM AROUND THE REGION...

CITY           SKY/WX    TMP DP  RH WIND       PRES   REMARKS
DENVER         MOCLDY    54  29  38 S16       29.58S
LARAMIE        CLOUDY    38  31  76 N10       29.71R WCI  31
CHEYENNE       MOCLDY    51  32  48 W14       29.62R
SCOTTSBLUFF    CLOUDY    53  44  71 CALM      29.53R
RAPID CITY     CLOUDY    56  42  59 S7        29.44F
PIERRE         CLOUDY    53  34  48 SE25G33   29.54F
WINNER         FAIR      56  32  40 SE22G30   29.56F
SIOUX FALLS    CLOUDY    49  37  63 SE26G36   29.85F
OMAHA          CLOUDY    54  33  45 SE16      29.95R
GRAND ISLAND   CLOUDY    52  40  63 SE24G31   29.74F
KANSAS CITY    LGT RAIN  54  35  48 SE10      30.00R
WICHITA        CLOUDY    57  37  47 SE15      29.87R
HAYS           PTCLDY    55  37  50 S20       29.74F
LIBERAL        PTCLDY    59  43  55 E15       29.78S
GOODLAND       CLOUDY    61  41  47 S23G29    29.61S
$$



USA.gov is the U.S. government's official web portal to all federal, state and local government web resources and services.